[[{"header":{"parameterUnit":"m.s-1","parameterCategory":2,"la1":30.2991,"la2":30.254,"lo1":-89.0895,"lo2":-89.0444,"dy":0.0017,"dx":0.0017,"nx":28,"ny":28,"refTime":"2025-01-29T03:00:00:Z","depth":"0","parameterNumber":2,"parameterNumberName":"U-component_of_CURRENTS"},"data":[0,0,0,0,0,0,0,0,0,0,0,0,0,0,0,0,0,0,0,0,0,0,0,0,0,0,0,0,0,0,0,0,0,0,0,0,0,0,0,0,0,0,0,0,0,0,0,0,0,0,0,0,0,0,0,0,0,0,-0.2327,-0.2328,0,-0.2358,-0.2358,-0.2358,-0.234,-0.234,-0.2339,-0.2338,-0.2305,-0.2305,-0.2305,0,0,0,0,0,0,0,0,0,0,0,0,0,-0.2243,-0.2245,-0.2327,-0.2328,-0.2328,-0.2358,-0.2358,-0.2358,-0.234,-0.234,-0.2339,-0.2338,-0.2305,-0.2305,-0.2305,0,0,0,0,0,0,0,0,0,0,0,0,0,-0.2275,-0.2245,-0.2327,-0.2325,-0.2325,-0.2358,-0.2358,-0.2358,-0.2341,-0.234,-0.2339,-0.2338,-0.2306,-0.2305,-0.2305,-0.2321,0,0,-0.2303,-0.2303,0,0,0,0,0,0,0,0,-0.2273,-0.2278,-0.2325,-0.2325,-0.2326,-0.2347,-0.2316,-0.2343,-0.2341,-0.2332,-0.2338,-0.2337,-0.2316,-0.2314,-0.2319,-0.2319,-0.2318,-0.2303,-0.2303,-0.2303,-0.2303,0,0,0,0,0,0,0,-0.2271,-0.2276,-0.2337,-0.2326,-0.2326,-0.2319,-0.2323,-0.2321,-0.2325,-0.2333,-0.2332,-0.234,-0.2315,-0.232,-0.2318,-0.2317,-0.2303,-0.2303,-0.2303,-0.2302,-0.2327,-0.2328,0,0,0,0,0,0,-0.2274,-0.2274,-0.2336,-0.2338,-0.23,-0.2322,-0.2325,-0.2339,-0.2327,-0.2325,-0.2341,-0.2339,-0.2321,-0.2319,-0.2317,-0.2336,-0.2303,-0.2302,-0.2302,-0.2326,-0.2328,-0.2329,0,0,0,0,0,0,-0.2273,-0.228,-0.2334,-0.2308,-0.2315,-0.2325,-0.234,-0.234,-0.2342,-0.2334,-0.2331,-0.2343,-0.232,-0.2318,-0.232,-0.2334,-0.2302,-0.2302,-0.2325,-0.2327,-0.2328,-0.2373,0,0,0,0,0,0,-0.227,-0.2279,-0.2284,-0.2309,-0.2317,-0.2357,-0.2341,-0.2341,-0.235,-0.2348,-0.2335,-0.2331,-0.2319,-0.2321,-0.232,-0.2333,-0.2301,-0.2324,-0.2326,-0.2328,-0.237,-0.2375,-0.238,0,0,0,0,0,-0.2267,-0.2281,-0.2285,-0.2292,-0.2326,-0.2359,-0.2362,-0.2363,-0.2351,-0.236,-0.235,-0.2332,-0.2331,-0.2322,-0.232,-0.2333,-0.2323,-0.2325,-0.2328,-0.2368,-0.2374,-0.238,0,0,0,0,0,0,-0.2244,-0.2282,-0.2286,-0.2309,-0.2334,-0.2356,-0.2362,-0.2366,-0.2367,-0.2359,-0.2344,-0.2341,-0.2347,-0.2337,-0.2327,-0.2346,-0.2324,-0.2326,-0.2355,-0.2361,-0.2366,-0.2368,-0.2301,0,0,0,0,0,-0.2244,-0.2263,-0.2299,-0.2315,-0.2329,-0.2345,-0.2356,-0.2363,-0.2371,-0.237,-0.2363,-0.2356,-0.2357,-0.2356,-0.2353,-0.2365,-0.2356,-0.2373,-0.2378,-0.2382,-0.2383,-0.2388,-0.2393,-0.2335,-0.2335,-0.2335,0,0,-0.2237,-0.2261,-0.2269,-0.2311,-0.2325,-0.2357,-0.2348,-0.2371,-0.2393,-0.2366,-0.2381,-0.2372,-0.2364,-0.2377,-0.2379,-0.2369,-0.2395,-0.2385,-0.2389,-0.2387,-0.2391,-0.2396,-0.2401,-0.2337,-0.2337,-0.2336,0,0,-0.224,-0.2256,-0.2277,-0.2306,-0.2341,-0.2359,-0.2368,-0.2396,-0.2401,-0.2422,-0.2407,-0.2409,-0.241,-0.2411,-0.241,-0.2443,-0.242,-0.2441,-0.2468,-0.2473,-0.2478,-0.2482,-0.2481,-0.2484,-0.2445,-0.2445,-0.2445,0,-0.2229,-0.2266,-0.2287,-0.2322,-0.2346,-0.2362,-0.2395,-0.2412,-0.2436,-0.2445,-0.243,-0.2441,-0.2428,-0.2451,-0.2458,-0.2454,-0.2449,-0.2445,-0.248,-0.2483,-0.2486,-0.2484,-0.2488,-0.2447,-0.2447,-0.2447,-0.2446,0,-0.2255,-0.2287,-0.2302,-0.2353,-0.2381,-0.2411,-0.2448,-0.2468,-0.2473,-0.2487,-0.2506,-0.2495,-0.2499,-0.25,-0.2485,-0.2508,-0.2496,-0.2484,-0.2463,-0.2495,-0.2491,-0.2493,-0.2451,-0.245,-0.2449,-0.2448,0,0,-0.2221,-0.2305,-0.2309,-0.2341,-0.2402,-0.2428,-0.2472,-0.2516,-0.2539,-0.2551,-0.2576,-0.2576,-0.2563,-0.2561,-0.2548,-0.2552,-0.2567,-0.2528,-0.2527,-0.2525,-0.2575,-0.2529,-0.2527,-0.2561,-0.2562,-0.2562,-0.2564,0,-0.2232,-0.2299,-0.2341,-0.2399,-0.2436,-0.2478,-0.2519,-0.2558,-0.258,-0.2606,-0.2604,-0.2615,-0.2591,-0.2587,-0.259,-0.2572,-0.2575,-0.2567,-0.2546,-0.2545,-0.2499,-0.2529,-0.2452,-0.2444,-0.2567,-0.2567,-0.2567,0,-0.224,-0.2287,-0.2347,-0.243,-0.2449,-0.2482,-0.2545,-0.2587,-0.2634,-0.265,-0.2666,-0.2661,-0.267,-0.2638,-0.2634,-0.2629,-0.2604,-0.259,-0.2589,-0.2531,-0.2504,-0.2432,-0.2444,-0.2431,-0.2571,-0.257,-0.257,0,-0.2196,-0.2287,-0.2332,-0.2362,-0.2458,-0.2483,-0.2525,-0.2585,-0.2621,-0.2667,-0.2689,-0.2703,-0.2703,-0.2686,-0.265,-0.2643,-0.264,-0.2625,-0.2566,-0.2562,-0.2483,-0.2471,-0.2476,-0.2621,-0.2621,-0.2621,-0.2621,0,-0.219,-0.2225,-0.2311,-0.2337,-0.2385,-0.2456,-0.2502,-0.2554,-0.2617,-0.2658,-0.2693,-0.2717,-0.2713,-0.2709,-0.2672,-0.2626,-0.2656,-0.2574,-0.2562,-0.2497,-0.2487,-0.246,-0.2469,-0.2621,-0.2621,-0.2621,-0.2621,0,-0.2133,-0.2196,-0.2249,-0.234,-0.2366,-0.2391,-0.2479,-0.2516,-0.2587,-0.2641,-0.2655,-0.2723,-0.2722,-0.2712,-0.2689,-0.2648,-0.257,-0.2584,-0.2506,-0.2483,-0.2406,-0.242,-0.2394,-0.2323,-0.2522,-0.2521,-0.252,0,-0.2112,-0.2132,-0.2223,-0.2245,-0.2281,-0.2333,-0.2374,-0.2475,-0.2521,-0.2637,-0.2658,-0.2695,-0.2704,-0.267,-0.2609,-0.255,-0.2527,-0.2446,-0.2414,-0.2396,-0.2403,-0.2402,-0.2344,-0.2331,-0.2329,-0.2327,-0.2325,0,-0.2054,-0.208,-0.2119,-0.2166,-0.2207,-0.2263,-0.2327,-0.2365,-0.2489,-0.2542,-0.2609,-0.2628,-0.2632,-0.2554,-0.2495,-0.2438,-0.2392,-0.2403,-0.2405,-0.2274,-0.2251,-0.2178,-0.234,-0.2308,-0.231,-0.2311,-0.2312,-0.2313,-0.1987,-0.1991,-0.2032,-0.2068,-0.2117,-0.2158,-0.2158,-0.2251,-0.2306,-0.2369,-0.2481,-0.249,-0.2493,-0.24,-0.235,-0.2247,-0.2266,-0.2186,-0.2211,-0.2217,-0.2128,-0.2251,-0.219,-0.2191,-0.2192,-0.2193,-0.2194,0,-0.1893,-0.1906,-0.1933,-0.1964,-0.1963,-0.2033,-0.2099,-0.2078,-0.2096,-0.2211,-0.2249,-0.2302,-0.2238,-0.2237,-0.217,-0.2088,-0.2022,-0.204,-0.2026,-0.1977,-0.21,-0.207,-0.1954,-0.1954,-0.1954,-0.1954,-0.1955,-0.1955,-0.1842,-0.1824,-0.1841,-0.1795,-0.181,-0.1766,-0.1773,-0.1772,-0.1817,-0.1855,-0.1935,-0.2036,-0.2069,-0.2232,-0.2131,-0.2031,-0.1966,-0.1918,-0.1918,-0.2028,-0.2044,-0.2059,-0.2033,-0.1911,-0.1911,-0.1726,-0.1724,-0.1724]},{"header":{"parameterUnit":"m.s-1","parameterCategory":2,"la1":30.2991,"la2":30.254,"lo1":-89.0895,"lo2":-89.0444,"dy":0.0017,"dx":0.0017,"nx":28,"ny":28,"refTime":"2025-01-29T03:00:00:Z","depth":"0","parameterNumber":3,"parameterNumberName":"V-component_of_CURRENTS"},"data":[0,0,0,0,0,0,0,0,0,0,0,0,0,0,0,0,0,0,0,0,0,0,0,0,0,0,0,0,0,0,0,0,0,0,0,0,0,0,0,0,0,0,0,0,0,0,0,0,0,0,0,0,0,0,0,0,0,0,-0.0056,-0.0056,0,0.0018,0.0019,0.0019,0.0072,0.0073,0.0073,0.0073,0.0197,0.02,0.0203,0,0,0,0,0,0,0,0,0,0,0,0,0,-0.01,-0.0099,-0.0057,-0.0056,-0.0055,0.0017,0.0019,0.002,0.0072,0.0073,0.0073,0.0073,0.0196,0.0199,0.0203,0,0,0,0,0,0,0,0,0,0,0,0,0,-0.0058,-0.0099,-0.0057,-0.0021,-0.0017,0.0017,0.0019,0.002,0.0072,0.0073,0.0073,0.0073,0.0195,0.0199,0.0203,0.0222,0,0,0.0217,0.0219,0,0,0,0,0,0,0,0,-0.006,-0.0056,-0.0027,-0.0023,-0.0019,0.0035,0.0049,0.009,0.0072,0.004,0.0073,0.0074,0.0146,0.0155,0.0169,0.0228,0.0233,0.0218,0.022,0.0222,0.0223,0,0,0,0,0,0,0,-0.0063,-0.0059,-0.0026,-0.0026,-0.0021,0.0009,0.0016,0.0057,0.0091,0.0042,0.0046,0.0052,0.0149,0.0164,0.0172,0.0235,0.0217,0.0221,0.0224,0.0226,0.0331,0.0331,0,0,0,0,0,0,-0.0078,-0.0062,-0.0028,-0.0024,-0.004,0.001,0.0016,0.0018,0.009,0.01,0.0052,0.0054,0.0156,0.0167,0.0177,0.0211,0.0222,0.0226,0.0229,0.0331,0.0331,0.0331,0,0,0,0,0,0,-0.008,-0.0076,-0.0031,-0.0042,-0.0034,0.0009,0.0011,0.0019,0.0035,0.0096,0.0108,0.0058,0.0157,0.017,0.0214,0.0216,0.0228,0.0233,0.0331,0.0331,0.0331,0.0275,0,0,0,0,0,0,-0.0081,-0.0077,-0.0083,-0.0043,-0.0034,-0.0019,0.0011,0.002,0.0037,0.0041,0.0106,0.0118,0.0158,0.0206,0.0218,0.0223,0.0236,0.0331,0.0331,0.0331,0.0277,0.0273,0.027,0,0,0,0,0,-0.0083,-0.0097,-0.0083,-0.0079,-0.0043,-0.002,-0.0012,0.0022,0.0037,0.0038,0.0086,0.0116,0.0216,0.021,0.0224,0.023,0.0331,0.0331,0.0331,0.0278,0.0274,0.027,0,0,0,0,0,0,-0.0119,-0.0091,-0.0076,-0.0081,-0.0055,-0.0011,-0.0009,0.0016,0.0054,0.0059,0.0119,0.0134,0.0172,0.0208,0.02,0.026,0.0278,0.0281,0.0233,0.0229,0.0226,0.0208,0.024,0,0,0,0,0,-0.013,-0.0132,-0.0098,-0.0101,-0.0092,-0.0051,-0.0038,-0.0015,0.0023,0.004,0.0086,0.0137,0.0183,0.021,0.0253,0.0286,0.0327,0.0299,0.0295,0.0292,0.0287,0.0355,0.0358,0.0332,0.0332,0.0332,0,0,-0.0145,-0.013,-0.0131,-0.0109,-0.0086,-0.008,-0.0042,-0.0028,-0.0016,0.0048,0.0078,0.0126,0.0189,0.0227,0.0247,0.0257,0.032,0.0293,0.029,0.0286,0.0356,0.0358,0.0361,0.0332,0.0332,0.0332,0,0,-0.018,-0.0163,-0.0178,-0.0161,-0.0136,-0.0107,-0.0106,-0.0065,-0.0039,-0.0006,0.0046,0.0096,0.0158,0.021,0.0244,0.0249,0.0298,0.0258,0.0231,0.0298,0.03,0.0303,0.035,0.0358,0.0259,0.0259,0.0259,0,-0.02,-0.0212,-0.0178,-0.0187,-0.0178,-0.0124,-0.0134,-0.0099,-0.0047,-0.0022,-0.0007,0.0101,0.0153,0.0216,0.0215,0.0243,0.0278,0.024,0.0293,0.0297,0.0301,0.0348,0.0357,0.0256,0.0256,0.0257,0.0257,0,-0.0245,-0.0252,-0.026,-0.025,-0.0235,-0.0236,-0.0186,-0.0159,-0.0121,-0.0078,-0.0015,0.006,0.0126,0.0151,0.0184,0.0238,0.0252,0.0278,0.03,0.03,0.035,0.036,0.0252,0.0253,0.0254,0.0255,0,0,-0.0293,-0.0294,-0.0295,-0.0305,-0.027,-0.0265,-0.0236,-0.0193,-0.017,-0.0106,-0.0066,0.0019,0.0065,0.0105,0.0163,0.0219,0.0277,0.0249,0.0254,0.0289,0.0408,0.0453,0.0469,0.031,0.0312,0.0313,0.0429,0,-0.0339,-0.0382,-0.0357,-0.0381,-0.0399,-0.0337,-0.0316,-0.0264,-0.0205,-0.015,-0.0053,0.0004,0.0048,0.0081,0.0144,0.0246,0.0302,0.0242,0.0408,0.0413,0.0448,0.0482,0.0531,0.0641,0.0439,0.0441,0.0442,0,-0.039,-0.0414,-0.0456,-0.0454,-0.0453,-0.0448,-0.04,-0.0373,-0.0272,-0.0224,-0.0141,-0.0061,0.0039,0.0073,0.0243,0.02,0.0292,0.0369,0.0376,0.0445,0.0478,0.0612,0.0668,0.0843,0.0459,0.0457,0.0456,0,-0.0454,-0.0478,-0.0517,-0.0518,-0.0504,-0.0498,-0.0476,-0.0397,-0.0371,-0.0264,-0.0229,-0.0096,-0.0022,0.0107,0.027,0.0258,0.0457,0.0468,0.0595,0.0598,0.0687,0.0696,0.0929,0.0586,0.0586,0.0585,0.0585,0,-0.0515,-0.0544,-0.0553,-0.0576,-0.0609,-0.0567,-0.0567,-0.0518,-0.0443,-0.041,-0.0276,-0.0212,-0.001,0.0134,0.0265,0.0468,0.0461,0.0598,0.064,0.0668,0.0673,0.0867,0.0915,0.059,0.0589,0.0588,0.0587,0,-0.0579,-0.0584,-0.0632,-0.064,-0.0644,-0.0665,-0.0645,-0.0638,-0.0555,-0.0504,-0.0472,-0.0286,-0.0088,0.0116,0.0349,0.0471,0.0761,0.0722,0.0731,0.0772,0.104,0.1081,0.1318,0.1409,0.0878,0.088,0.0882,0,-0.0615,-0.065,-0.0694,-0.0729,-0.0735,-0.0757,-0.077,-0.0706,-0.0691,-0.0548,-0.0528,-0.0314,-0.0147,0.0218,0.0482,0.0747,0.0862,0.0933,0.0925,0.1078,0.1155,0.1177,0.1237,0.1018,0.1021,0.1023,0.1025,0,-0.0684,-0.0697,-0.0738,-0.0822,-0.0855,-0.0887,-0.0893,-0.0898,-0.0806,-0.0733,-0.0592,-0.0438,-0.005,0.0305,0.0667,0.0822,0.1062,0.0984,0.1161,0.1302,0.1325,0.1425,0.09,0.1044,0.1042,0.1041,0.104,0.1039,-0.0725,-0.0776,-0.0838,-0.0909,-0.0959,-0.1003,-0.1025,-0.0998,-0.0957,-0.0817,-0.0658,-0.0383,0.0156,0.069,0.0873,0.13,0.1233,0.1424,0.1464,0.1476,0.1564,0.1067,0.1245,0.1244,0.1243,0.1243,0.1242,0,-0.0778,-0.0837,-0.0921,-0.1001,-0.1074,-0.1074,-0.1099,-0.1084,-0.1031,-0.0834,-0.0654,-0.0042,0.0477,0.0956,0.1555,0.1776,0.1812,0.1884,0.1946,0.1987,0.1585,0.1593,0.1833,0.1832,0.1832,0.1832,0.1832,0.1832,-0.0807,-0.0903,-0.0952,-0.1085,-0.114,-0.1203,-0.1217,-0.1151,-0.1019,-0.0671,-0.0315,-0.0018,0.0689,0.1647,0.2199,0.2241,0.2412,0.2389,0.2474,0.2216,0.2177,0.2139,0.2164,0.2519,0.252,0.2879,0.2882,0.2885]}],[{"header":{"parameterUnit":"m.s-1","parameterCategory":2,"la1":30.2991,"la2":30.254,"lo1":-89.0895,"lo2":-89.0444,"dy":0.0017,"dx":0.0017,"nx":28,"ny":28,"refTime":"2025-01-29T03:00:00:Z","depth":"2","parameterNumber":2,"parameterNumberName":"U-component_of_CURRENTS"},"data":[0,0,0,0,0,0,0,0,0,0,0,0,0,0,0,0,0,0,0,0,0,0,0,0,0,0,0,0,0,0,0,0,0,0,0,0,0,0,0,0,0,0,0,0,0,0,0,0,0,0,0,0,0,0,0,0,0,0,-0.2205,-0.2206,0,-0.2235,-0.2235,-0.2235,-0.2222,-0.2221,-0.2221,-0.222,-0.2192,-0.2191,-0.2191,0,0,0,0,0,0,0,0,0,0,0,0,0,-0.2127,-0.2128,-0.2205,-0.2206,-0.2207,-0.2235,-0.2235,-0.2235,-0.2222,-0.2221,-0.2221,-0.222,-0.2192,-0.2191,-0.2191,0,0,0,0,0,0,0,0,0,0,0,0,0,-0.2156,-0.2128,-0.2205,-0.2205,-0.2206,-0.2235,-0.2235,-0.2235,-0.2222,-0.2221,-0.222,-0.222,-0.2192,-0.2191,-0.2191,-0.2203,0,0,-0.219,-0.2189,0,0,0,0,0,0,0,0,-0.2155,-0.2159,-0.2205,-0.2205,-0.2206,-0.2226,-0.2197,-0.2222,-0.2222,-0.2213,-0.222,-0.2219,-0.22,-0.2199,-0.2203,-0.2202,-0.22,-0.2189,-0.2189,-0.2189,-0.2189,0,0,0,0,0,0,0,-0.2153,-0.2158,-0.2214,-0.2205,-0.2206,-0.22,-0.2203,-0.2202,-0.2207,-0.2214,-0.2213,-0.2221,-0.2199,-0.2204,-0.2202,-0.22,-0.219,-0.2189,-0.2189,-0.2189,-0.2213,-0.2214,0,0,0,0,0,0,-0.2156,-0.2156,-0.2213,-0.2215,-0.2181,-0.2203,-0.2206,-0.2218,-0.2208,-0.2208,-0.2222,-0.2221,-0.2205,-0.2203,-0.2201,-0.2222,-0.2189,-0.2189,-0.2188,-0.2212,-0.2213,-0.2214,0,0,0,0,0,0,-0.2154,-0.2161,-0.2212,-0.2188,-0.2194,-0.2205,-0.2219,-0.2219,-0.2224,-0.2216,-0.2213,-0.2226,-0.2204,-0.2202,-0.2206,-0.2221,-0.2188,-0.2188,-0.2211,-0.2212,-0.2214,-0.226,0,0,0,0,0,0,-0.2152,-0.216,-0.2166,-0.2189,-0.2196,-0.2235,-0.222,-0.222,-0.2231,-0.223,-0.2219,-0.2215,-0.2203,-0.2207,-0.2205,-0.2219,-0.2188,-0.221,-0.2212,-0.2213,-0.2257,-0.2263,-0.2267,0,0,0,0,0,-0.2149,-0.2163,-0.2167,-0.2173,-0.2205,-0.2236,-0.2239,-0.2242,-0.2232,-0.2241,-0.2234,-0.2216,-0.2216,-0.2207,-0.2205,-0.222,-0.2209,-0.2211,-0.2213,-0.2255,-0.2261,-0.2267,0,0,0,0,0,0,-0.2129,-0.2164,-0.2168,-0.219,-0.2214,-0.2234,-0.2241,-0.2246,-0.2248,-0.2243,-0.2228,-0.2225,-0.2233,-0.2223,-0.2213,-0.2232,-0.221,-0.2212,-0.2242,-0.2248,-0.2253,-0.2255,-0.2187,0,0,0,0,0,-0.213,-0.2147,-0.2181,-0.2196,-0.2209,-0.2226,-0.2236,-0.2244,-0.2253,-0.2253,-0.2247,-0.2241,-0.2242,-0.2241,-0.2238,-0.2251,-0.2241,-0.2259,-0.2264,-0.2268,-0.227,-0.2273,-0.2278,-0.2221,-0.2221,-0.2221,0,0,-0.2123,-0.2146,-0.2154,-0.2193,-0.2207,-0.2237,-0.2229,-0.2252,-0.2274,-0.2249,-0.2266,-0.2257,-0.2249,-0.2262,-0.2265,-0.2254,-0.2281,-0.2271,-0.2275,-0.2274,-0.2276,-0.2281,-0.2286,-0.2222,-0.2222,-0.2222,0,0,-0.2127,-0.2143,-0.2163,-0.219,-0.2224,-0.2241,-0.225,-0.2278,-0.2285,-0.2306,-0.2292,-0.2295,-0.2297,-0.2297,-0.2296,-0.2328,-0.2307,-0.2327,-0.2356,-0.2359,-0.2364,-0.2368,-0.2368,-0.2372,-0.2331,-0.2331,-0.2332,0,-0.2118,-0.2152,-0.2172,-0.2205,-0.2228,-0.2246,-0.2277,-0.2294,-0.2318,-0.2328,-0.2315,-0.2327,-0.2315,-0.2336,-0.2345,-0.234,-0.2336,-0.2333,-0.2366,-0.2369,-0.2373,-0.2372,-0.2375,-0.2334,-0.2334,-0.2333,-0.2333,0,-0.2143,-0.2174,-0.2188,-0.2236,-0.2264,-0.2293,-0.2328,-0.2349,-0.2357,-0.2371,-0.239,-0.2381,-0.2385,-0.2386,-0.2373,-0.2395,-0.2384,-0.237,-0.2349,-0.2381,-0.2378,-0.2381,-0.2337,-0.2337,-0.2336,-0.2335,0,0,-0.2112,-0.2191,-0.2195,-0.2226,-0.2284,-0.2309,-0.2352,-0.2395,-0.2419,-0.2433,-0.2458,-0.246,-0.2449,-0.2447,-0.2435,-0.2439,-0.2455,-0.2415,-0.2414,-0.2414,-0.2463,-0.2416,-0.2414,-0.2447,-0.2448,-0.2448,-0.2453,0,-0.2124,-0.2186,-0.2226,-0.2282,-0.2316,-0.2358,-0.2397,-0.2436,-0.2458,-0.2486,-0.2485,-0.2497,-0.2475,-0.2474,-0.2477,-0.2459,-0.2463,-0.2455,-0.2433,-0.2432,-0.2386,-0.2416,-0.2226,-0.2211,-0.2456,-0.2456,-0.2456,0,-0.2131,-0.2175,-0.2232,-0.2311,-0.2329,-0.2362,-0.2424,-0.2464,-0.2511,-0.2529,-0.2547,-0.2544,-0.2554,-0.2524,-0.252,-0.2516,-0.2492,-0.2478,-0.2478,-0.2418,-0.2391,-0.2218,-0.2206,-0.246,-0.246,-0.246,-0.246,0,-0.209,-0.2176,-0.2219,-0.2247,-0.2338,-0.2364,-0.2405,-0.2464,-0.2499,-0.2547,-0.257,-0.2586,-0.2587,-0.2571,-0.2538,-0.2531,-0.2528,-0.2512,-0.2453,-0.245,-0.2274,-0.2254,-0.2508,-0.2508,-0.2508,-0.2508,-0.2508,0,-0.2084,-0.2117,-0.22,-0.2224,-0.2271,-0.2339,-0.2386,-0.2436,-0.2499,-0.2539,-0.2575,-0.2599,-0.2598,-0.2595,-0.256,-0.2514,-0.2544,-0.2463,-0.245,-0.2286,-0.2268,-0.247,-0.2466,-0.2509,-0.2509,-0.2508,-0.2508,0,-0.2031,-0.2091,-0.2141,-0.2228,-0.2253,-0.2279,-0.2365,-0.24,-0.2472,-0.2524,-0.2539,-0.2606,-0.2608,-0.2599,-0.2577,-0.2536,-0.2499,-0.2473,-0.2283,-0.2247,-0.2415,-0.2413,-0.2414,-0.2413,-0.2412,-0.241,-0.241,0,-0.201,-0.2029,-0.2116,-0.2137,-0.2173,-0.2225,-0.2264,-0.2363,-0.2406,-0.252,-0.2539,-0.2579,-0.2585,-0.2552,-0.2478,-0.2417,-0.2468,-0.2218,-0.2169,-0.2419,-0.2406,-0.2406,-0.2406,-0.1955,-0.195,-0.1947,-0.1944,0,-0.1954,-0.1981,-0.2017,-0.2062,-0.2102,-0.2154,-0.2217,-0.2252,-0.2372,-0.2421,-0.2484,-0.2501,-0.2493,-0.235,-0.2287,-0.222,-0.2214,-0.2142,-0.244,-0.2018,-0.1988,-0.1976,-0.199,-0.191,-0.1914,-0.1916,-0.1918,-0.1919,-0.1891,-0.1894,-0.1933,-0.1968,-0.2014,-0.2051,-0.2049,-0.213,-0.2178,-0.2211,-0.233,-0.2278,-0.2271,-0.207,-0.1981,-0.1897,-0.2042,-0.1936,-0.1946,-0.1961,-0.1916,-0.1887,-0.1781,-0.1784,-0.1786,-0.1788,-0.1789,0,-0.1797,-0.1812,-0.1837,-0.1865,-0.1859,-0.1932,-0.199,-0.1947,-0.1948,-0.2007,-0.202,-0.1819,-0.1752,-0.1741,-0.1572,-0.1559,-0.1521,-0.1488,-0.143,-0.1464,-0.1495,-0.1425,-0.116,-0.1159,-0.1157,-0.1155,0,0,-0.1747,-0.1725,-0.174,-0.1691,-0.171,-0.1654,-0.1658,-0.1614,-0.1607,-0.1528,-0.1494,-0.1627,-0.1683,-0.1407,-0.136,-0.1234,-0.1328,-0.1172,-0.1675,-0.1639,-0.1667,-0.1753,-0.1686,0,0,0,0,0]},{"header":{"parameterUnit":"m.s-1","parameterCategory":2,"la1":30.2991,"la2":30.254,"lo1":-89.0895,"lo2":-89.0444,"dy":0.0017,"dx":0.0017,"nx":28,"ny":28,"refTime":"2025-01-29T03:00:00:Z","depth":"2","parameterNumber":3,"parameterNumberName":"V-component_of_CURRENTS"},"data":[0,0,0,0,0,0,0,0,0,0,0,0,0,0,0,0,0,0,0,0,0,0,0,0,0,0,0,0,0,0,0,0,0,0,0,0,0,0,0,0,0,0,0,0,0,0,0,0,0,0,0,0,0,0,0,0,0,0,-0.0138,-0.0137,0,-0.0066,-0.0065,-0.0064,-0.0012,-0.0011,-0.0011,-0.0011,0.011,0.0113,0.0115,0,0,0,0,0,0,0,0,0,0,0,0,0,-0.0179,-0.0179,-0.0138,-0.0137,-0.0136,-0.0066,-0.0065,-0.0064,-0.0012,-0.0011,-0.0011,-0.001,0.0109,0.0112,0.0116,0,0,0,0,0,0,0,0,0,0,0,0,0,-0.0139,-0.0179,-0.0138,-0.0103,-0.0099,-0.0066,-0.0065,-0.0064,-0.0012,-0.0011,-0.0011,-0.001,0.0108,0.0112,0.0116,0.0132,0,0,0.0129,0.0131,0,0,0,0,0,0,0,0,-0.0141,-0.0137,-0.0109,-0.0105,-0.0101,-0.0048,-0.0035,0.0004,-0.0012,-0.0044,-0.0011,-0.001,0.006,0.0069,0.0082,0.0138,0.0143,0.013,0.0132,0.0134,0.0135,0,0,0,0,0,0,0,-0.0144,-0.014,-0.0108,-0.0108,-0.0103,-0.0073,-0.0067,-0.0028,0.0006,-0.0041,-0.0037,-0.0031,0.0063,0.0077,0.0085,0.0145,0.013,0.0133,0.0136,0.0138,0.0238,0.0239,0,0,0,0,0,0,-0.0158,-0.0143,-0.0111,-0.0106,-0.0121,-0.0073,-0.0066,-0.0065,0.0005,0.0015,-0.0032,-0.0029,0.007,0.008,0.009,0.0124,0.0134,0.0138,0.0141,0.0238,0.0239,0.0239,0,0,0,0,0,0,-0.016,-0.0156,-0.0114,-0.0123,-0.0116,-0.0073,-0.0072,-0.0064,-0.0048,0.0011,0.0023,-0.0024,0.0071,0.0084,0.0126,0.0129,0.014,0.0144,0.0238,0.0238,0.0239,0.0186,0,0,0,0,0,0,-0.0161,-0.0157,-0.0162,-0.0125,-0.0116,-0.0102,-0.0072,-0.0063,-0.0045,-0.0041,0.0021,0.0033,0.0072,0.0119,0.013,0.0135,0.0147,0.0238,0.0238,0.0239,0.0187,0.0184,0.0181,0,0,0,0,0,-0.0163,-0.0176,-0.0163,-0.0159,-0.0124,-0.0102,-0.0095,-0.0062,-0.0046,-0.0044,0.0002,0.0031,0.0128,0.0123,0.0136,0.0142,0.0238,0.0238,0.0239,0.0189,0.0185,0.0181,0,0,0,0,0,0,-0.0197,-0.0171,-0.0156,-0.016,-0.0136,-0.0094,-0.0091,-0.0067,-0.0029,-0.0024,0.0034,0.0049,0.0086,0.012,0.0112,0.0171,0.0187,0.019,0.0145,0.0142,0.0139,0.0121,0.0151,0,0,0,0,0,-0.0208,-0.021,-0.0177,-0.018,-0.0171,-0.0131,-0.0118,-0.0096,-0.0058,-0.0042,0.0003,0.0052,0.0097,0.0123,0.0164,0.0196,0.0235,0.0208,0.0205,0.0202,0.0197,0.0262,0.0265,0.0239,0.0239,0.0239,0,0,-0.0222,-0.0208,-0.0209,-0.0187,-0.0165,-0.016,-0.0122,-0.0109,-0.0097,-0.0034,-0.0005,0.0042,0.0102,0.0139,0.0159,0.0168,0.0229,0.0202,0.0199,0.0196,0.0263,0.0265,0.0267,0.0239,0.0239,0.0239,0,0,-0.0256,-0.0239,-0.0254,-0.0237,-0.0212,-0.0184,-0.0184,-0.0144,-0.0118,-0.0086,-0.0035,0.0014,0.0073,0.0123,0.0156,0.0161,0.0208,0.017,0.0145,0.0208,0.0211,0.0213,0.0259,0.0266,0.0171,0.017,0.017,0,-0.0275,-0.0287,-0.0254,-0.0262,-0.0254,-0.02,-0.0211,-0.0176,-0.0126,-0.0101,-0.0086,0.0018,0.0069,0.0128,0.0129,0.0155,0.0189,0.0153,0.0204,0.0207,0.0211,0.0257,0.0266,0.0168,0.0168,0.0169,0.0169,0,-0.0318,-0.0325,-0.0332,-0.0323,-0.0308,-0.0308,-0.026,-0.0235,-0.0197,-0.0156,-0.0094,-0.0021,0.0042,0.0067,0.0099,0.0151,0.0165,0.019,0.021,0.021,0.0259,0.0269,0.0164,0.0165,0.0166,0.0167,0,0,-0.0364,-0.0365,-0.0366,-0.0376,-0.0342,-0.0337,-0.0309,-0.0268,-0.0246,-0.0183,-0.0145,-0.0062,-0.0017,0.0022,0.0079,0.0133,0.019,0.0163,0.0167,0.0202,0.0316,0.0356,0.0371,0.0221,0.0223,0.0224,0.0336,0,-0.0407,-0.0449,-0.0425,-0.0449,-0.0466,-0.0407,-0.0387,-0.0337,-0.028,-0.0227,-0.0133,-0.0077,-0.0033,-0.0001,0.0061,0.016,0.0214,0.0156,0.0315,0.032,0.0352,0.0384,0.0314,0.041,0.0346,0.0348,0.0349,0,-0.0456,-0.0479,-0.0521,-0.052,-0.0519,-0.0515,-0.0469,-0.0443,-0.0346,-0.03,-0.0219,-0.0141,-0.0044,-0.001,0.0156,0.0114,0.0203,0.0279,0.0286,0.0349,0.038,0.0403,0.0432,0.0366,0.0365,0.0364,0.0363,0,-0.0518,-0.0541,-0.058,-0.0581,-0.0569,-0.0563,-0.0543,-0.0467,-0.0443,-0.0339,-0.0305,-0.0176,-0.0104,0.0021,0.0181,0.0169,0.0362,0.0373,0.0494,0.0497,0.0482,0.0482,0.0487,0.0487,0.0487,0.0487,0.0486,0,-0.0577,-0.0605,-0.0614,-0.0637,-0.067,-0.063,-0.0631,-0.0584,-0.0513,-0.0482,-0.0351,-0.0291,-0.0093,0.0046,0.0175,0.0371,0.0366,0.0497,0.0537,0.0461,0.0458,0.0454,0.0449,0.0491,0.049,0.0489,0.0488,0,-0.0638,-0.0643,-0.0691,-0.07,-0.0704,-0.0725,-0.0707,-0.0702,-0.0621,-0.0573,-0.0542,-0.0364,-0.0173,0.0026,0.0253,0.0371,0.0547,0.0615,0.0507,0.0533,0.0635,0.0625,0.0758,0.0761,0.0763,0.0765,0.0766,0,-0.0673,-0.0708,-0.0751,-0.0786,-0.0792,-0.0815,-0.0828,-0.0767,-0.0754,-0.0618,-0.06,-0.0394,-0.0237,0.0116,0.0355,0.0609,0.0613,0.0693,0.0669,0.0641,0.0667,0.0654,0.0642,0.0622,0.0622,0.0622,0.0622,0,-0.0741,-0.0753,-0.0794,-0.0877,-0.091,-0.0942,-0.095,-0.0956,-0.0868,-0.08,-0.0668,-0.0523,-0.0166,0.0112,0.0456,0.059,0.0648,0.0707,0.0723,0.0567,0.0523,0.0544,0.0535,0.0624,0.0624,0.0624,0.0623,0.0623,-0.078,-0.0831,-0.0892,-0.0962,-0.1012,-0.1057,-0.108,-0.1055,-0.1019,-0.0897,-0.0747,-0.0516,-0.0218,0.0256,0.0492,0.0708,0.0718,0.0756,0.0751,0.0746,0.0714,0.0677,0.0799,0.08,0.08,0.0801,0.0801,0,-0.0833,-0.0892,-0.0974,-0.1053,-0.1125,-0.1126,-0.1152,-0.1142,-0.1095,-0.0935,-0.0776,-0.0466,-0.0125,0.0185,0.0524,0.0746,0.0712,0.0773,0.0673,0.067,0.0668,0.0627,0.0692,0.0693,0.0693,0.0693,0,0,-0.0862,-0.0956,-0.1005,-0.1136,-0.119,-0.1255,-0.1269,-0.1215,-0.1109,-0.0956,-0.078,-0.052,-0.0128,0.0086,0.0357,0.0534,0.0544,0.0545,0.0607,0.0453,0.0449,0.0631,0.0563,0,0,0,0,0]}],[{"header":{"parameterUnit":"m.s-1","parameterCategory":2,"la1":30.2991,"la2":30.254,"lo1":-89.0895,"lo2":-89.0444,"dy":0.0017,"dx":0.0017,"nx":28,"ny":28,"refTime":"2025-01-29T03:00:00:Z","depth":"4","parameterNumber":2,"parameterNumberName":"U-component_of_CURRENTS"},"data":[0,0,0,0,0,0,0,0,0,0,0,0,0,0,0,0,0,0,0,0,0,0,0,0,0,0,0,0,0,0,0,0,0,0,0,0,0,0,0,0,0,0,0,0,0,0,0,0,0,0,0,0,0,0,0,0,0,0,-0.1468,-0.1469,0,-0.1532,-0.1532,-0.1533,-0.1573,-0.1573,-0.1574,-0.1574,-0.1617,-0.1618,-0.1619,0,0,0,0,0,0,0,0,0,0,0,0,0,-0.1375,-0.1376,-0.1468,-0.1469,-0.147,-0.1532,-0.1532,-0.1533,-0.1573,-0.1573,-0.1574,-0.1574,-0.1617,-0.1618,-0.1619,0,0,0,0,0,0,0,0,0,0,0,0,0,-0.1423,-0.1376,-0.1468,-0.1499,-0.1502,-0.1532,-0.1532,-0.1533,-0.1573,-0.1573,-0.1574,-0.1574,-0.1617,-0.1618,-0.1619,-0.1615,0,0,-0.1623,-0.1623,0,0,0,0,0,0,0,0,-0.142,-0.1426,-0.1493,-0.1497,-0.1501,-0.1547,-0.1515,-0.156,-0.1573,-0.1544,-0.1574,-0.1575,-0.1592,-0.1596,-0.1604,-0.1617,-0.1619,-0.1623,-0.1623,-0.1624,-0.1624,0,0,0,0,0,0,0,-0.1417,-0.1423,-0.1492,-0.1494,-0.1499,-0.1507,-0.1514,-0.1524,-0.1562,-0.1547,-0.155,-0.156,-0.1594,-0.1603,-0.1605,-0.1619,-0.1623,-0.1624,-0.1624,-0.1625,-0.1701,-0.1702,0,0,0,0,0,0,-0.1412,-0.142,-0.149,-0.1494,-0.1463,-0.1508,-0.1517,-0.153,-0.1563,-0.1569,-0.1559,-0.1561,-0.1601,-0.1604,-0.1607,-0.1675,-0.1624,-0.1625,-0.1626,-0.1699,-0.1701,-0.1702,0,0,0,0,0,0,-0.141,-0.1418,-0.1487,-0.1459,-0.1469,-0.151,-0.1524,-0.1531,-0.1568,-0.1573,-0.1579,-0.1593,-0.1601,-0.1605,-0.1644,-0.1674,-0.1626,-0.1627,-0.1698,-0.17,-0.1702,-0.1765,0,0,0,0,0,0,-0.1407,-0.1417,-0.1437,-0.1459,-0.1471,-0.1524,-0.1524,-0.1532,-0.1572,-0.1576,-0.1603,-0.1606,-0.1602,-0.1642,-0.1645,-0.1675,-0.1628,-0.1696,-0.1699,-0.1701,-0.1761,-0.1769,-0.1775,0,0,0,0,0,-0.1403,-0.1425,-0.1437,-0.1446,-0.1493,-0.1526,-0.1533,-0.1561,-0.1573,-0.1596,-0.1617,-0.1607,-0.166,-0.1645,-0.1648,-0.1678,-0.1695,-0.1698,-0.1701,-0.1758,-0.1767,-0.1775,0,0,0,0,0,0,-0.1395,-0.1432,-0.1446,-0.1478,-0.1509,-0.1534,-0.156,-0.1578,-0.1612,-0.1623,-0.1625,-0.163,-0.1673,-0.1667,-0.1651,-0.1707,-0.1675,-0.1679,-0.1717,-0.1726,-0.1733,-0.173,-0.1629,0,0,0,0,0,-0.1402,-0.1429,-0.1462,-0.149,-0.1508,-0.1539,-0.1561,-0.1583,-0.161,-0.1627,-0.1647,-0.1666,-0.1682,-0.1699,-0.171,-0.1744,-0.1729,-0.1765,-0.1772,-0.1778,-0.1777,-0.1781,-0.1788,-0.1712,-0.1712,-0.1712,0,0,-0.1407,-0.1431,-0.1448,-0.1491,-0.1517,-0.1552,-0.1555,-0.1598,-0.1633,-0.1625,-0.1684,-0.1693,-0.1696,-0.1734,-0.1753,-0.1738,-0.1794,-0.1782,-0.1787,-0.1783,-0.1785,-0.1792,-0.1798,-0.1714,-0.1714,-0.1713,0,0,-0.1422,-0.1453,-0.148,-0.1511,-0.1559,-0.1579,-0.1598,-0.1641,-0.1671,-0.172,-0.1723,-0.1752,-0.1785,-0.1793,-0.1798,-0.1851,-0.183,-0.1859,-0.1897,-0.1901,-0.1907,-0.1912,-0.1912,-0.1916,-0.1866,-0.1866,-0.1866,0,-0.1429,-0.1467,-0.1494,-0.1529,-0.1561,-0.1595,-0.1633,-0.1666,-0.172,-0.1745,-0.175,-0.1804,-0.1809,-0.1846,-0.1866,-0.1867,-0.1864,-0.1865,-0.191,-0.1914,-0.1918,-0.1917,-0.1921,-0.1869,-0.1869,-0.1868,-0.1868,0,-0.1457,-0.1501,-0.1521,-0.1576,-0.1613,-0.1654,-0.17,-0.1745,-0.1782,-0.1809,-0.1866,-0.1876,-0.1904,-0.1915,-0.1909,-0.1946,-0.1933,-0.1916,-0.1887,-0.193,-0.1926,-0.1929,-0.1874,-0.1873,-0.1872,-0.1871,0,0,-0.1434,-0.1524,-0.1534,-0.1572,-0.1645,-0.1674,-0.1741,-0.18,-0.1844,-0.1893,-0.194,-0.1974,-0.1981,-0.1987,-0.1986,-0.1994,-0.2024,-0.1974,-0.1973,-0.1971,-0.2035,-0.1909,-0.19,-0.2017,-0.2018,-0.2019,-0.2023,0,-0.145,-0.1519,-0.1565,-0.1638,-0.1676,-0.1736,-0.1792,-0.1852,-0.1901,-0.1954,-0.1977,-0.2018,-0.2008,-0.2026,-0.2036,-0.2026,-0.2034,-0.2024,-0.1995,-0.1994,-0.1874,-0.19,-0.2021,-0.2025,-0.2026,-0.2026,-0.2027,0,-0.1456,-0.1504,-0.1577,-0.1671,-0.1694,-0.1747,-0.1838,-0.1893,-0.197,-0.2008,-0.2053,-0.2069,-0.2101,-0.2079,-0.2089,-0.2086,-0.2067,-0.2054,-0.2053,-0.1912,-0.1873,-0.1971,-0.2032,-0.2031,-0.2031,-0.2031,-0.203,0,-0.1408,-0.151,-0.1569,-0.1603,-0.1711,-0.1762,-0.1822,-0.1909,-0.1956,-0.2041,-0.2076,-0.2117,-0.2139,-0.2131,-0.2109,-0.2106,-0.2103,-0.2091,-0.1961,-0.1953,-0.2037,-0.2032,-0.2089,-0.2089,-0.2089,-0.2089,-0.2089,0,-0.1389,-0.144,-0.1557,-0.1587,-0.166,-0.1745,-0.1824,-0.1892,-0.1979,-0.2024,-0.2095,-0.2118,-0.2153,-0.2154,-0.2127,-0.2046,-0.2117,-0.1965,-0.1942,-0.2065,-0.2063,-0.204,-0.2034,-0.209,-0.2089,-0.2089,-0.2089,0,-0.1321,-0.1403,-0.1474,-0.1597,-0.164,-0.1689,-0.1814,-0.186,-0.196,-0.202,-0.2047,-0.2126,-0.2126,-0.2137,-0.2123,-0.2052,-0.1998,-0.1952,-0.2088,-0.2074,-0.1845,-0.1843,-0.1809,-0.1805,-0.1801,-0.1798,-0.1795,0,-0.1291,-0.1321,-0.1457,-0.1497,-0.1559,-0.1648,-0.1705,-0.1831,-0.1873,-0.2,-0.2008,-0.2061,-0.2092,-0.1967,-0.1998,-0.1939,-0.1911,-0.1878,-0.1855,-0.1833,-0.1816,-0.182,-0.1822,-0.1789,-0.1788,-0.1787,-0.1786,0,-0.1218,-0.1279,-0.1334,-0.1414,-0.1487,-0.1558,-0.1648,-0.1664,-0.1797,-0.1912,-0.1908,-0.1899,-0.1899,-0.1875,-0.1842,-0.1799,-0.1896,-0.1838,-0.1846,-0.1824,-0.1809,-0.1796,-0.1803,-0.1773,-0.1775,-0.1776,-0.1777,0,-0.116,-0.1175,-0.1249,-0.1308,-0.1393,-0.1428,-0.1499,-0.1545,-0.1602,-0.1746,-0.1739,-0.1798,-0.1879,-0.1802,-0.177,-0.172,-0.1692,-0.163,-0.1648,-0.1663,-0.161,-0.157,-0.1436,0,0,0,0,0,-0.1088,-0.1089,-0.1134,-0.1189,-0.1267,-0.1314,-0.1437,-0.1511,-0.1643,-0.1595,-0.166,-0.1651,-0.1617,-0.1647,-0.156,-0.17,-0.1695,-0.1593,-0.1634,-0.17,-0.1715,-0.1665,0,0,0,0,0,0,-0.1039,-0.107,-0.1087,-0.107,-0.1082,-0.1154,-0.1226,-0.1327,-0.1308,-0.1446,-0.1429,-0.1539,-0.1521,-0.1626,-0.1517,-0.1526,-0.1517,-0.1639,-0.1635,-0.1691,-0.1705,-0.1717,-0.1671,0,0,0,0,0]},{"header":{"parameterUnit":"m.s-1","parameterCategory":2,"la1":30.2991,"la2":30.254,"lo1":-89.0895,"lo2":-89.0444,"dy":0.0017,"dx":0.0017,"nx":28,"ny":28,"refTime":"2025-01-29T03:00:00:Z","depth":"4","parameterNumber":3,"parameterNumberName":"V-component_of_CURRENTS"},"data":[0,0,0,0,0,0,0,0,0,0,0,0,0,0,0,0,0,0,0,0,0,0,0,0,0,0,0,0,0,0,0,0,0,0,0,0,0,0,0,0,0,0,0,0,0,0,0,0,0,0,0,0,0,0,0,0,0,0,-0.0202,-0.0202,0,-0.0152,-0.0151,-0.0151,-0.0114,-0.0114,-0.0114,-0.0114,-0.0021,-0.0019,-0.0017,0,0,0,0,0,0,0,0,0,0,0,0,0,-0.0228,-0.0228,-0.0202,-0.0202,-0.0201,-0.0152,-0.0151,-0.0151,-0.0114,-0.0114,-0.0114,-0.0114,-0.0022,-0.0019,-0.0017,0,0,0,0,0,0,0,0,0,0,0,0,0,-0.02,-0.0228,-0.0202,-0.0178,-0.0175,-0.0152,-0.0151,-0.015,-0.0114,-0.0114,-0.0114,-0.0114,-0.0023,-0.002,-0.0016,-0.0001,0,0,-0.0006,-0.0004,0,0,0,0,0,0,0,0,-0.0202,-0.0199,-0.0182,-0.018,-0.0177,-0.014,-0.0126,-0.0099,-0.0115,-0.0136,-0.0114,-0.0113,-0.0058,-0.0052,-0.0042,0.0003,0.0007,-0.0006,-0.0003,-0.0002,-0.0001,0,0,0,0,0,0,0,-0.0204,-0.0201,-0.0181,-0.0182,-0.0178,-0.0156,-0.0152,-0.0121,-0.0098,-0.0135,-0.0132,-0.0128,-0.0056,-0.0045,-0.0039,0.0008,-0.0006,-0.0003,-0.0001,0.0001,0.0082,0.0082,0,0,0,0,0,0,-0.0215,-0.0203,-0.0183,-0.018,-0.019,-0.0156,-0.0152,-0.0151,-0.0099,-0.0092,-0.0129,-0.0127,-0.0051,-0.0044,-0.0036,-0.0008,-0.0002,0.0001,0.0003,0.0082,0.0082,0.0082,0,0,0,0,0,0,-0.0215,-0.0213,-0.0185,-0.0191,-0.0186,-0.0157,-0.0156,-0.0151,-0.014,-0.0095,-0.0087,-0.0124,-0.0051,-0.0041,-0.0007,-0.0004,0.0003,0.0006,0.0082,0.0082,0.0082,0.0044,0,0,0,0,0,0,-0.0216,-0.0214,-0.0219,-0.0192,-0.0186,-0.0177,-0.0156,-0.015,-0.0139,-0.0136,-0.0088,-0.008,-0.005,-0.0013,-0.0004,0.0001,0.0008,0.0082,0.0082,0.0082,0.0045,0.0043,0.0041,0,0,0,0,0,-0.0218,-0.0228,-0.022,-0.0218,-0.0194,-0.0178,-0.0173,-0.0149,-0.0139,-0.0138,-0.0103,-0.0081,-0.0005,-0.001,0.0,0.0006,0.0082,0.0082,0.0082,0.0046,0.0044,0.0041,0,0,0,0,0,0,-0.0242,-0.0224,-0.0215,-0.022,-0.0202,-0.0172,-0.0171,-0.0153,-0.0126,-0.0122,-0.0078,-0.0067,-0.0036,-0.0011,-0.0017,0.003,0.0041,0.0044,0.0011,0.0008,0.0006,-0.0008,0.0011,0,0,0,0,0,-0.0251,-0.0253,-0.023,-0.0234,-0.0228,-0.02,-0.0191,-0.0175,-0.0147,-0.0135,-0.0101,-0.0063,-0.0028,-0.0007,0.0025,0.0051,0.0081,0.0061,0.0059,0.0057,0.0053,0.0105,0.0107,0.0083,0.0083,0.0083,0,0,-0.0262,-0.0252,-0.0254,-0.0239,-0.0224,-0.0221,-0.0194,-0.0184,-0.0176,-0.0128,-0.0107,-0.007,-0.0023,0.0007,0.0023,0.0029,0.0079,0.0058,0.0056,0.0052,0.0105,0.0108,0.011,0.0083,0.0083,0.0083,0,0,-0.0286,-0.0277,-0.0287,-0.0276,-0.0259,-0.0239,-0.0239,-0.021,-0.0193,-0.0168,-0.0129,-0.0089,-0.0043,-0.0003,0.0022,0.0029,0.0064,0.0036,0.0018,0.0068,0.007,0.0073,0.0107,0.0113,0.0037,0.0036,0.0036,0,-0.0301,-0.031,-0.0287,-0.0293,-0.0289,-0.0251,-0.026,-0.0235,-0.0197,-0.0181,-0.0168,-0.0086,-0.0046,0.0002,0.0004,0.0025,0.0051,0.0022,0.0065,0.0068,0.0071,0.0106,0.0113,0.0035,0.0035,0.0035,0.0035,0,-0.0329,-0.0337,-0.0342,-0.0337,-0.0328,-0.033,-0.0296,-0.0279,-0.0252,-0.0222,-0.0174,-0.0115,-0.0066,-0.0045,-0.0018,0.0025,0.0035,0.0054,0.0069,0.0071,0.0108,0.0116,0.0032,0.0033,0.0033,0.0034,0,0,-0.0359,-0.0363,-0.0366,-0.0376,-0.0354,-0.0352,-0.0334,-0.0306,-0.0294,-0.0243,-0.0217,-0.0147,-0.0112,-0.0081,-0.0034,0.0012,0.0059,0.0036,0.0039,0.0065,0.0158,0.0143,0.0151,0.0084,0.0086,0.0087,0.0172,0,-0.0389,-0.0422,-0.0407,-0.043,-0.0444,-0.0405,-0.0395,-0.0361,-0.0321,-0.0284,-0.0207,-0.0165,-0.0125,-0.01,-0.0047,0.0035,0.0078,0.0033,0.0156,0.0159,0.0143,0.0159,0.0091,0.0178,0.018,0.0182,0.0183,0,-0.042,-0.044,-0.0476,-0.0486,-0.0487,-0.049,-0.0467,-0.045,-0.038,-0.0347,-0.0283,-0.0222,-0.0139,-0.011,0.0029,-0.0004,0.0067,0.013,0.0135,0.0139,0.0159,0.0179,0.0197,0.0196,0.0195,0.0194,0.0193,0,-0.046,-0.0485,-0.0521,-0.0525,-0.0526,-0.053,-0.0522,-0.0472,-0.0459,-0.0383,-0.0359,-0.0252,-0.0198,-0.0089,0.0042,0.0037,0.0191,0.0204,0.0257,0.0257,0.026,0.0257,0.0294,0.0294,0.0294,0.0294,0.0293,0,-0.0496,-0.0524,-0.0548,-0.0568,-0.0606,-0.0583,-0.0598,-0.0567,-0.0521,-0.0502,-0.0399,-0.0356,-0.019,-0.0079,0.0034,0.017,0.0189,0.0255,0.0281,0.0241,0.0235,0.0266,0.0261,0.0297,0.0296,0.0295,0.0295,0,-0.0529,-0.0544,-0.0591,-0.0616,-0.0629,-0.0654,-0.0663,-0.0665,-0.0612,-0.0582,-0.0559,-0.0425,-0.0278,-0.0114,0.0073,0.0152,0.0289,0.033,0.0268,0.0289,0.032,0.0313,0.0395,0.0395,0.0395,0.0395,0.0395,0,-0.0547,-0.0577,-0.0637,-0.0675,-0.0691,-0.0727,-0.0749,-0.0717,-0.0712,-0.0623,-0.0609,-0.0463,-0.0359,-0.0106,0.0062,0.028,0.0306,0.0367,0.0349,0.0315,0.0333,0.0325,0.0318,0.0396,0.0396,0.0396,0.0396,0,-0.0582,-0.0608,-0.0648,-0.0733,-0.0777,-0.082,-0.0843,-0.0845,-0.0792,-0.075,-0.0639,-0.0488,-0.0322,-0.0117,0.0057,0.0211,0.0325,0.037,0.037,0.0354,0.0317,0.0333,0.0326,0.0397,0.0397,0.0397,0.0396,0,-0.0605,-0.0646,-0.0709,-0.0777,-0.0845,-0.0889,-0.0895,-0.0874,-0.0855,-0.0745,-0.0712,-0.051,-0.0387,-0.0153,0.0007,0.0161,0.0193,0.0227,0.0235,0.0236,0.0165,0.0094,0.0129,0,0,0,0,0,-0.0622,-0.0674,-0.0749,-0.082,-0.0889,-0.0925,-0.0948,-0.0936,-0.0886,-0.0818,-0.0759,-0.0597,-0.0335,-0.0216,-0.0066,-0.0004,0.0206,0.0175,0.0246,0.0401,0.04,0.0342,0,0,0,0,0,0,-0.0636,-0.0709,-0.0751,-0.0845,-0.0899,-0.0964,-0.0981,-0.0947,-0.0897,-0.0824,-0.0683,-0.0581,-0.0328,-0.0422,-0.0069,-0.002,0.004,0.0308,0.031,0.0402,0.0401,0.04,0.034,0,0,0,0,0]}]]